Home   Weather   Caruaru   Past weeks

Flag for Brazil Past Weather in Caruaru, Pernambuco, Brazil — Yesterday and Last 2 Weeks

Now
84 °F

Scattered clouds.


Feels Like: 91 °F
Forecast: 64 / 87 °F
Wind: 8 mph from Southeast

Location: Recife Aeroporto

Current Time: Sep 27, 2016 at 10:54:19 AM

Latest Report: Sep 27, 2016 at 10:00 AM


Visibility: N/A

Pressure: 29.98 "Hg (28.16 "Hg at 554m altitude)

Humidity: 70%

Dew Point: 73 °F

Location of CaruaruLocation

Past Weather in Caruaru — Graph

°F

Caruaru Temperature Yesterday

Maximum temperature yesterday: 84 °F (at 10:00 AM)
Minimum temperature yesterday: 77 °F (at 6:00 AM)
Average temperature yesterday: 81 °F

High & Low Weather Summary for the Past Weeks

 TemperatureHumidityPressure
High86 °F (Sep 14, 12:00 PM)94% (Sep 13, 3:00 AM)30.07 "Hg (Sep 13, 3:00 AM)
Low72 °F (Sep 13, 3:00 AM)58% (Sep 18, 1:00 PM)29.89 "Hg (Sep 25, 2:00 PM)
Average80 °F75%29.99 "Hg
* Reported Sep 12 9:00 AM — Sep 27 9:00 AM, Caruaru, Weather by CustomWeather, © 2016

Note: Actual official high and low records may vary slightly from our data, if they occured in-between our weather recording intervals... More about our weather records

Advertising

Caruaru Weather History for the Previous 24 Hours

Scroll right to see more
 ConditionsComfort  
Time TempWeatherWind HumidityBarometerVisibility
9:00 AM
Tue, Sep 27
84 °FPassing clouds.7 mph66%30.01 "HgN/A
8:00 AM82 °FScattered clouds.7 mph74%29.98 "HgN/A
7:00 AM77 °FScattered clouds.6 mph89%29.98 "HgN/A
6:00 AM77 °FScattered clouds.6 mph83%29.95 "HgN/A
5:00 AM77 °FPassing clouds.No wind83%29.92 "HgN/A
4:00 AM77 °FPassing clouds.5 mph83%29.92 "HgN/A
3:00 AM79 °FPassing clouds.7 mph79%29.92 "HgN/A
2:00 AM79 °FPassing clouds.6 mph79%29.92 "HgN/A
1:00 AM79 °FPassing clouds.6 mph79%29.95 "HgN/A
12:00 AM81 °FPassing clouds.7 mph74%29.95 "HgN/A
11:00 PM
Mon, Sep 26
81 °FPassing clouds.8 mph79%29.95 "HgN/A
10:00 PM81 °FPassing clouds.7 mph74%29.98 "HgN/A
9:00 PM81 °FPassing clouds.7 mph74%29.98 "HgN/A
8:00 PM79 °FPassing clouds.6 mph79%29.95 "HgN/A
7:00 PM81 °FPassing clouds.6 mph74%29.92 "HgN/A
6:00 PM81 °FPassing clouds.8 mph74%29.89 "HgN/A
5:00 PM81 °FPassing clouds.6 mph74%29.89 "HgN/A
4:00 PM81 °FPassing clouds.9 mph74%29.89 "HgN/A
2:00 PM82 °FPassing clouds.8 mph70%29.89 "HgN/A
1:00 PM84 °FPassing clouds.10 mph66%29.89 "HgN/A
12:00 PM84 °FPassing clouds.10 mph66%29.92 "HgN/A
11:00 AM84 °FScattered clouds.8 mph66%29.95 "HgN/A
10:00 AM84 °FScattered clouds.9 mph66%29.98 "HgN/A
Weather by CustomWeather, © 2016

See weather overviewHow to use our weather pages